Location: Newark
(49.8969°N, 3.3422°E)
Time: 10:29:00
(UTC+00:00)

A-11 Canister half - Pass Details

Date: 31 January 2020
Orbit: 1517 x 1683 km, 47.2° (Epoch: 19 February)

Event Time Altitude Azimuth Distance (km) Brightness Sun altitude
Rises 00:31:59 0° 263° (W) 4,732 - -57.0°
Reaches altitude 10° 00:35:04 10° 262° (W) 3,730 - -56.9°
Maximum altitude 00:44:26 77° 179° (S) 1,561 - -56.5°
Drops below altitude 10° 00:53:40 10° 96° (E) 3,679 - -55.9°
Exits shadow 00:55:44 - 95° (E) 4,354 11.5 -55.8°
Sets 00:56:41 0° 95° (E) 4,665 11.7 -55.7°
